[[{"header":{"parameterUnit":"m.s-1","parameterCategory":1,"la1":30.2991,"la2":30.254,"lo1":-89.0895,"lo2":-89.0444,"dy":0.0017,"dx":0.0017,"nx":28,"ny":28,"refTime":"2024-07-30T03:00:00:Z","depth":0,"parameterNumber":2,"parameterNumberName":"U-component_of_WINDS"},"data":[0,0,0,0,0,0,0,0,0,0,0,0,0,0,0,0,0,0,0,0,0,0,0,0,0,0,0,0,0,0,0,0,0,0,0,0,0,0,0,0,0,0,0,0,0,0,0,0,0,0,0,0,0,0,0,0,0,0,2.494,2.4941,0,2.5022,2.5023,2.5024,2.4975,2.4973,2.497,2.4968,2.5054,2.5059,2.5063,0,0,0,0,0,0,0,0,0,0,0,0,0,2.474,2.4744,2.494,2.4941,2.4942,2.5022,2.5023,2.5025,2.4976,2.4973,2.497,2.4967,2.5053,2.5058,2.5064,0,0,0,0,0,0,0,0,0,0,0,0,0,2.4825,2.4745,2.494,2.4927,2.4927,2.5022,2.5023,2.5025,2.4976,2.4973,2.4969,2.4966,2.5051,2.5058,2.5064,2.5177,0,0,2.5085,2.5088,0,0,0,0,0,0,0,0,2.482,2.4832,2.4928,2.4928,2.4928,2.4985,2.4984,2.5076,2.4977,2.4958,2.4968,2.4964,2.5034,2.5042,2.5066,2.5181,2.5185,2.5086,2.509,2.5093,2.5095,0,0,0,0,0,0,0,2.4814,2.4829,2.4973,2.4929,2.493,2.4917,2.4926,2.5002,2.5015,2.4959,2.4956,2.4966,2.5034,2.5059,2.5067,2.5186,2.5085,2.5091,2.5096,2.5098,2.5396,2.54,0,0,0,0,0,0,2.4809,2.4824,2.497,2.4975,2.4864,2.4924,2.4933,2.497,2.5014,2.5017,2.4969,2.4963,2.5049,2.5059,2.507,2.5203,2.5093,2.5099,2.5103,2.5392,2.5397,2.5401,0,0,0,0,0,0,2.4805,2.4823,2.4967,2.4899,2.4916,2.4931,2.4973,2.4974,2.4999,2.5021,2.5024,2.4993,2.5047,2.5061,2.515,2.5206,2.5102,2.5108,2.5387,2.5393,2.5399,2.5472,0,0,0,0,0,0,2.48,2.4822,2.4865,2.49,2.492,2.5046,2.4977,2.4978,2.5011,2.5004,2.5044,2.5047,2.5045,2.514,2.5157,2.5213,2.5113,2.5383,2.539,2.5397,2.5464,2.5479,2.5492,0,0,0,0,0,2.4793,2.4883,2.4867,2.4885,2.4974,2.5049,2.506,2.5056,2.5015,2.5059,2.5073,2.5046,2.5197,2.515,2.5168,2.5227,2.5379,2.5388,2.5396,2.5458,2.5476,2.5492,0,0,0,0,0,0,2.4855,2.4887,2.487,2.4975,2.5009,2.5041,2.5095,2.5075,2.5123,2.5115,2.5107,2.5117,2.521,2.5227,2.5175,2.5337,2.5282,2.5294,2.5322,2.534,2.5353,2.5347,2.5119,0,0,0,0,0,2.4881,2.4939,2.4964,2.5053,2.5072,2.5081,2.5113,2.5106,2.5142,2.5157,2.5177,2.5213,2.5268,2.5305,2.5357,2.5467,2.5474,2.5516,2.553,2.5541,2.5552,2.5609,2.5628,2.5429,2.5429,2.5429,0,0,2.4935,2.496,2.4997,2.5067,2.5093,2.5152,2.5093,2.516,2.5204,2.5167,2.5252,2.5269,2.5308,2.5408,2.5452,2.5425,2.5608,2.5552,2.5561,2.5566,2.562,2.5639,2.5656,2.5435,2.5434,2.5433,0,0,2.5064,2.5089,2.5165,2.5192,2.5232,2.5237,2.5255,2.5289,2.5298,2.5383,2.5356,2.5408,2.5504,2.5533,2.556,2.5698,2.5675,2.5715,2.5787,2.5843,2.5858,2.5872,2.592,2.5937,2.5726,2.5726,2.5726,0,2.5126,2.5215,2.5207,2.5275,2.5306,2.5274,2.5351,2.5377,2.5432,2.5454,2.5423,2.5541,2.5565,2.567,2.5703,2.5727,2.5747,2.571,2.5857,2.5871,2.5883,2.5929,2.5947,2.5731,2.573,2.573,2.5729,0,2.5289,2.5351,2.5408,2.5461,2.5498,2.557,2.5573,2.5611,2.5601,2.5609,2.5695,2.5723,2.5779,2.5804,2.5795,2.5907,2.5889,2.5857,2.5801,2.5907,2.5949,2.5967,2.5737,2.5736,2.5734,2.5733,0,0,2.5461,2.5506,2.5527,2.555,2.559,2.5638,2.5708,2.5762,2.5795,2.5834,2.5892,2.5972,2.5943,2.5974,2.5967,2.6017,2.6122,2.5979,2.598,2.6003,2.6245,2.6268,2.6289,2.6106,2.611,2.6112,2.6241,0,2.5591,2.5713,2.5707,2.5821,2.5877,2.5847,2.5908,2.5939,2.5948,2.5997,2.6007,2.6063,2.6021,2.6039,2.6086,2.6099,2.617,2.609,2.616,2.6162,2.615,2.6311,2.6336,2.6457,2.6258,2.6261,2.6263,0,2.576,2.5803,2.5922,2.5952,2.5976,2.6031,2.6079,2.6126,2.616,2.6163,2.6197,2.6182,2.6252,2.6194,2.629,2.6235,2.6263,2.6273,2.6278,2.6284,2.6219,2.6321,2.6495,2.6513,2.6289,2.6287,2.6285,0,2.5872,2.596,2.6042,2.6062,2.61,2.6139,2.6156,2.6187,2.6219,2.6261,2.6282,2.6332,2.6359,2.6398,2.6397,2.6355,2.6493,2.6436,2.6497,2.6497,2.6528,2.6526,2.6709,2.6547,2.6547,2.6547,2.6546,0,2.6018,2.6092,2.6092,2.6143,2.6224,2.6216,2.6297,2.631,2.6338,2.639,2.6367,2.6416,2.6411,2.6461,2.6461,2.6539,2.6552,2.6556,2.6555,2.6558,2.6557,2.6576,2.6567,2.6552,2.6551,2.655,2.6549,0,2.6157,2.616,2.6247,2.6275,2.6284,2.6342,2.6366,2.6414,2.642,2.6486,2.6501,2.6511,2.6568,2.657,2.6637,2.6636,2.6731,2.6721,2.672,2.6717,2.6779,2.6772,2.6979,2.7005,2.6828,2.683,2.6831,0,2.625,2.6306,2.6339,2.6371,2.6391,2.6445,2.6477,2.6471,2.6505,2.6547,2.6589,2.6644,2.6687,2.678,2.6793,2.6843,2.6833,2.6902,2.6841,2.6841,2.6833,2.6829,2.6834,2.6914,2.6916,2.6918,2.6919,0,2.6414,2.6412,2.6459,2.6507,2.6545,2.6583,2.6617,2.6646,2.6643,2.6683,2.674,2.6774,2.684,2.6895,2.6943,2.696,2.6939,2.6938,2.6955,2.6958,2.6955,2.6956,2.6751,2.6934,2.6932,2.6931,2.693,2.693,2.6532,2.6579,2.6609,2.6662,2.6687,2.6719,2.6765,2.6776,2.6824,2.6877,2.687,2.6934,2.6964,2.7027,2.7048,2.7097,2.7074,2.7098,2.7104,2.711,2.7116,2.6947,2.7106,2.7106,2.7105,2.7105,2.7105,0,2.6693,2.6711,2.6759,2.6808,2.6849,2.6825,2.6861,2.6897,2.6953,2.6983,2.7026,2.7091,2.7143,2.7159,2.7209,2.7246,2.7237,2.7259,2.7256,2.726,2.7135,2.7115,2.7265,2.7265,2.7265,2.7265,2.7265,2.7265,2.6782,2.6861,2.6863,2.6953,2.6969,2.7031,2.7054,2.7083,2.7107,2.718,2.7223,2.7233,2.7257,2.7308,2.7354,2.7358,2.7377,2.7403,2.7402,2.7285,2.7269,2.7254,2.7235,2.7407,2.7407,2.7523,2.7524,2.7524]},{"header":{"parameterUnit":"m.s-1","parameterCategory":1,"la1":30.2991,"la2":30.254,"lo1":-89.0895,"lo2":-89.0444,"dy":0.0017,"dx":0.0017,"nx":28,"ny":28,"refTime":"2024-07-30T03:00:00:Z","depth":0,"parameterNumber":3,"parameterNumberName":"V-component_of_WINDS"},"data":[0,0,0,0,0,0,0,0,0,0,0,0,0,0,0,0,0,0,0,0,0,0,0,0,0,0,0,0,0,0,0,0,0,0,0,0,0,0,0,0,0,0,0,0,0,0,0,0,0,0,0,0,0,0,0,0,0,0,5.0535,5.0536,0,5.0631,5.0632,5.0633,5.0585,5.0582,5.058,5.0577,5.067,5.0674,5.0679,0,0,0,0,0,0,0,0,0,0,0,0,0,5.0303,5.0308,5.0535,5.0536,5.0538,5.0631,5.0632,5.0634,5.0585,5.0582,5.0579,5.0576,5.0668,5.0674,5.068,0,0,0,0,0,0,0,0,0,0,0,0,0,5.0402,5.0309,5.0535,5.0525,5.0525,5.0631,5.0633,5.0634,5.0586,5.0582,5.0578,5.0575,5.0666,5.0673,5.068,5.08,0,0,5.0702,5.0705,0,0,0,0,0,0,0,0,5.0396,5.041,5.0525,5.0526,5.0526,5.0592,5.0584,5.0689,5.0587,5.0563,5.0577,5.0573,5.0647,5.0655,5.0681,5.0804,5.0808,5.0703,5.0707,5.071,5.0712,0,0,0,0,0,0,0,5.0389,5.0406,5.0573,5.0527,5.0527,5.0513,5.0523,5.0604,5.0624,5.0564,5.0561,5.0573,5.0646,5.0674,5.0683,5.081,5.0703,5.0709,5.0714,5.0716,5.1033,5.1037,0,0,0,0,0,0,5.0384,5.0401,5.057,5.0576,5.0451,5.0521,5.0532,5.0575,5.0623,5.0627,5.0577,5.0571,5.0664,5.0675,5.0686,5.0828,5.071,5.0717,5.0721,5.1029,5.1034,5.1039,0,0,0,0,0,0,5.0379,5.04,5.0566,5.0487,5.0508,5.0529,5.0577,5.0579,5.0607,5.0633,5.0635,5.0602,5.0661,5.0676,5.0772,5.0831,5.072,5.0727,5.1024,5.1031,5.1036,5.1115,0,0,0,0,0,0,5.0373,5.0398,5.0446,5.0489,5.0512,5.0653,5.0581,5.0583,5.062,5.0614,5.0658,5.0661,5.066,5.0762,5.0779,5.0839,5.0732,5.1019,5.1027,5.1035,5.1107,5.1123,5.1136,0,0,0,0,0,5.0365,5.0463,5.0448,5.0469,5.0572,5.0656,5.0669,5.0667,5.0625,5.0672,5.0688,5.066,5.0822,5.0772,5.0791,5.0854,5.1015,5.1025,5.1034,5.11,5.112,5.1136,0,0,0,0,0,0,5.0424,5.0468,5.0453,5.0568,5.0609,5.0648,5.0707,5.0688,5.074,5.0732,5.0725,5.0735,5.0835,5.0854,5.0797,5.0971,5.0912,5.0925,5.0955,5.0974,5.0989,5.0982,5.0738,0,0,0,0,0,5.0451,5.0518,5.0552,5.065,5.0672,5.0686,5.0723,5.0718,5.0759,5.0775,5.0799,5.0838,5.0897,5.0937,5.0993,5.1109,5.1117,5.1162,5.1176,5.1188,5.12,5.1261,5.1281,5.1069,5.1069,5.1069,0,0,5.0506,5.0539,5.0581,5.0663,5.0694,5.0761,5.0701,5.0775,5.0824,5.0786,5.0879,5.0897,5.094,5.1046,5.1094,5.1065,5.126,5.12,5.1209,5.1215,5.1273,5.1293,5.1311,5.1075,5.1074,5.1073,0,0,5.0642,5.0674,5.0759,5.0792,5.084,5.0849,5.0869,5.0911,5.0922,5.1016,5.0988,5.1045,5.1148,5.118,5.1209,5.1356,5.1331,5.1374,5.1451,5.1511,5.1527,5.1542,5.1593,5.1612,5.1386,5.1386,5.1386,0,5.0704,5.0807,5.0805,5.0881,5.0917,5.0887,5.0972,5.1003,5.1067,5.1091,5.1058,5.1186,5.1213,5.1326,5.1362,5.1387,5.1408,5.1369,5.1526,5.154,5.1554,5.1603,5.1622,5.1391,5.139,5.139,5.1389,0,5.088,5.0951,5.1014,5.1078,5.1121,5.1201,5.1209,5.1252,5.1243,5.1255,5.1349,5.138,5.1442,5.1468,5.1459,5.1579,5.156,5.1526,5.1466,5.1579,5.1625,5.1643,5.1398,5.1396,5.1395,5.1393,0,0,5.1056,5.1118,5.1141,5.1169,5.122,5.1274,5.1352,5.1414,5.145,5.1495,5.1558,5.1646,5.1615,5.1649,5.1643,5.1696,5.1808,5.1656,5.1657,5.1682,5.1941,5.1965,5.1987,5.1792,5.1796,5.1799,5.1937,0,5.1194,5.1333,5.1333,5.146,5.1525,5.1497,5.1564,5.1601,5.1614,5.1669,5.1681,5.1743,5.1699,5.1718,5.1769,5.1784,5.186,5.1774,5.185,5.1852,5.184,5.2011,5.2038,5.2167,5.1955,5.1958,5.196,0,5.1375,5.1427,5.1561,5.1602,5.1629,5.169,5.1746,5.18,5.184,5.1845,5.1883,5.1869,5.1945,5.1883,5.1987,5.1929,5.1959,5.1971,5.1976,5.1982,5.1913,5.2022,5.2208,5.2227,5.1988,5.1986,5.1984,0,5.1489,5.1592,5.1686,5.1711,5.1761,5.1804,5.1826,5.1863,5.19,5.1949,5.1972,5.2028,5.2058,5.2101,5.2101,5.2056,5.2206,5.2144,5.221,5.2211,5.2243,5.2241,5.2436,5.2264,5.2264,5.2263,5.2263,0,5.1643,5.1726,5.1738,5.1795,5.1886,5.1884,5.1973,5.1991,5.2024,5.2083,5.2061,5.2116,5.2114,5.2169,5.2169,5.2254,5.2268,5.2273,5.2272,5.2275,5.2274,5.2294,5.2285,5.2268,5.2267,5.2266,5.2265,0,5.1786,5.1797,5.1897,5.1936,5.1948,5.2013,5.2046,5.2099,5.2109,5.2184,5.2201,5.2216,5.228,5.2284,5.2357,5.2357,5.2461,5.245,5.2448,5.2446,5.2511,5.2505,5.2726,5.2754,5.2564,5.2566,5.2568,0,5.1883,5.1947,5.1993,5.2032,5.2058,5.212,5.2158,5.2157,5.2197,5.2248,5.2295,5.2357,5.2406,5.2508,5.2524,5.258,5.257,5.2643,5.2578,5.2578,5.257,5.2566,5.2571,5.2656,5.2658,5.266,5.2661,0,5.2055,5.2058,5.2115,5.2174,5.222,5.2266,5.2308,5.234,5.2344,5.239,5.2456,5.2494,5.2569,5.263,5.2684,5.2704,5.2683,5.2682,5.27,5.2703,5.2699,5.2701,5.2482,5.2676,5.2675,5.2674,5.2673,5.2672,5.2178,5.2232,5.2274,5.2337,5.237,5.241,5.2462,5.2479,5.2535,5.2597,5.2593,5.2665,5.2702,5.2772,5.2797,5.2851,5.2826,5.2853,5.2859,5.2866,5.2872,5.2691,5.2861,5.2861,5.286,5.286,5.286,0,5.2347,5.2373,5.2432,5.2493,5.2542,5.252,5.2565,5.2608,5.2672,5.271,5.2759,5.2834,5.2892,5.2913,5.297,5.301,5.3001,5.3024,5.3021,5.3026,5.2892,5.287,5.303,5.303,5.303,5.303,5.303,5.303,5.2442,5.2533,5.254,5.2646,5.2669,5.2742,5.277,5.2806,5.2836,5.2921,5.297,5.2984,5.3014,5.3073,5.3125,5.3129,5.315,5.3178,5.3178,5.3052,5.3035,5.3019,5.2998,5.3183,5.3183,5.3307,5.3308,5.3309]}]]